Albemarle, NC

11:04 AM EDT on April 25, 2018 (GMT -0400)
Stanly County

Weather History for KVUJ - November, 2013

Change the Weather History Date:

Monday, November 4, 2013

  Actual Average (KHBI) Record (KHBI)
Temperature  
Mean Temperature 45 °F -  
Max Temperature 58 °F 65 °F 82 °F (1946)
Min Temperature 32 °F 45 °F 24 °F (1954)
Degree Days  
Heating Degree Days 20    
Moisture  
Dew Point 34 °F    
Average Humidity 68    
Maximum Humidity 100    
Minimum Humidity 35    
Precipitation  
Precipitation 0.00 in - - ()
Sea Level Pressure  
Sea Level Pressure 30.52 in    
Wind  
Wind Speed 3 mph (NE)    
Max Wind Speed 10 mph    
Max Gust Speed 16 mph    
Visibility 10 miles    
Events      
Averages and records for this station are not official NWS values.
T = Trace of Precipitation, MM = Missing Value Source: NWS Daily Summary

Daily Weather History Graph

Daily Weather History Graph

Search for Another Location

Airport or City:

Astronomy

Nov. 04, 2013 Rise Set
Actual Time 6:45 AM EST 5:22 PM EST
Civil Twilight 6:18 AM EST 5:49 PM EST
Nautical Twilight 5:48 AM EST 6:19 PM EST
Astronomical Twilight 5:18 AM EST 6:49 PM EST
Moon 7:52 AM EST (11/4) 6:28 PM EST (11/4)
Length of Visible Light 11h 30m
Length of Day
10h 37m
New Moon, 2% of the Moon is Illuminated
Nov 4
New Moon
Nov 10
First Quarter
Nov 17
Full
Nov 25
Last Quarter
Dec 2
New

Hourly Weather History & Observations

Time (EST) Temp. Windchill Dew Point Humidity Pressure Visibility Wind Dir Wind Speed Gust Speed Precip Events Conditions
12:15 AM 37.9 °F - 37.2 °F 97% 30.40 in 10.0 mi Calm Calm - N/A   Clear
12:35 AM 38.3 °F - 36.7 °F 94% 30.41 in 10.0 mi Calm Calm - N/A   Clear
12:55 AM 40.5 °F 37.3 °F 37.0 °F 88% 30.42 in 10.0 mi NNE 4.6 mph - N/A   Clear
1:15 AM 40.5 °F - 36.3 °F 85% 30.42 in 10.0 mi Calm Calm - N/A   Clear
1:35 AM 40.3 °F - 37.4 °F 89% 30.43 in 10.0 mi Calm Calm - N/A   Clear
1:55 AM 37.4 °F - 35.8 °F 94% 30.45 in 10.0 mi Calm Calm - N/A   Clear
2:15 AM 36.3 °F 33.7 °F 35.8 °F 98% 30.44 in 10.0 mi North 3.5 mph - N/A   Clear
2:35 AM 37.4 °F - 35.2 °F 92% 30.45 in 10.0 mi Calm Calm - N/A   Clear
2:55 AM 36.9 °F - 35.8 °F 96% 30.46 in 10.0 mi Calm Calm - N/A   Clear
3:15 AM 36.3 °F - 35.6 °F 97% 30.46 in 10.0 mi Calm Calm - N/A   Clear
3:35 AM 37.2 °F - 34.7 °F 91% 30.46 in 10.0 mi Calm Calm - N/A   Clear
3:55 AM 37.0 °F - 34.7 °F 91% 30.46 in 10.0 mi Calm Calm - N/A   Clear
4:15 AM 36.7 °F - 34.5 °F 92% 30.47 in 10.0 mi Calm Calm - N/A   Clear
4:35 AM 37.4 °F - 34.7 °F 90% 30.47 in 10.0 mi Calm Calm - N/A   Clear
4:55 AM 35.2 °F - 33.1 °F 92% 30.47 in 10.0 mi Calm Calm - N/A   Clear
5:15 AM 35.2 °F - 33.8 °F 94% 30.48 in 10.0 mi Calm Calm - N/A   Clear
5:35 AM 33.1 °F - 32.9 °F 99% 30.48 in 10.0 mi Calm Calm - N/A   Clear
5:55 AM 32.9 °F - 32.9 °F 100% 30.48 in 10.0 mi Calm Calm - N/A   Clear
6:15 AM 33.6 °F - 32.4 °F 95% 30.50 in 10.0 mi Calm Calm - N/A   Clear
6:35 AM 33.8 °F - 32.9 °F 96% 30.51 in 10.0 mi Calm Calm - N/A   Clear
6:55 AM 34.5 °F 31.6 °F 33.3 °F 95% 30.51 in 10.0 mi North 3.5 mph - N/A   Clear
7:15 AM 37.2 °F - 34.0 °F 88% 30.52 in 10.0 mi Calm Calm - N/A   Clear
7:35 AM 38.8 °F - 34.9 °F 86% 30.53 in 10.0 mi Calm Calm - N/A   Clear
7:55 AM 42.8 °F 41.1 °F 36.9 °F 80% 30.54 in 10.0 mi North 3.5 mph - N/A   Clear
8:15 AM 44.2 °F 42.7 °F 35.2 °F 71% 30.56 in 10.0 mi North 3.5 mph - N/A   Clear
8:35 AM 45.7 °F 41.5 °F 33.6 °F 63% 30.57 in 10.0 mi NNE 8.1 mph - N/A   Clear
8:55 AM 46.8 °F - 32.7 °F 58% 30.57 in 10.0 mi NE 5.8 mph - N/A   Clear
9:15 AM 48.4 °F - 34.0 °F 58% 30.56 in 10.0 mi NE 8.1 mph - N/A   Clear
9:35 AM 49.5 °F - 32.0 °F 51% 30.55 in 10.0 mi NE 6.9 mph - N/A   Clear
9:55 AM 50.7 °F - 31.1 °F 47% 30.56 in 10.0 mi NE 9.2 mph - N/A   Clear
10:15 AM 52.0 °F - 30.7 °F 44% 30.55 in 10.0 mi NE 9.2 mph - N/A   Clear
10:35 AM 53.8 °F - 31.1 °F 42% 30.56 in 10.0 mi ENE 9.2 mph - N/A   Clear
10:55 AM 54.0 °F - 29.1 °F 39% 30.56 in 10.0 mi East 6.9 mph - N/A   Clear
11:15 AM 55.4 °F - 28.2 °F 35% 30.56 in 10.0 mi East 8.1 mph - N/A   Clear
11:35 AM 55.2 °F - 28.0 °F 35% 30.56 in 10.0 mi ENE 10.4 mph - N/A   Clear
11:55 AM 55.2 °F - 28.8 °F 36% 30.55 in 10.0 mi NNE 5.8 mph - N/A   Clear
12:15 PM 56.3 °F - 29.7 °F 36% 30.53 in 10.0 mi NE 8.1 mph - N/A   Clear
12:35 PM 57.0 °F - 29.7 °F 35% 30.53 in 10.0 mi NNE 10.4 mph - N/A   Clear
12:55 PM 57.0 °F - 30.6 °F 37% 30.52 in 10.0 mi East 3.5 mph - N/A   Clear
1:15 PM 55.9 °F - 30.7 °F 38% 30.52 in 10.0 mi East 6.9 mph 16.1 mph N/A   Clear
1:35 PM 58.1 °F - 31.8 °F 37% 30.51 in 10.0 mi NE 6.9 mph - N/A   Clear
1:55 PM 57.9 °F - 32.0 °F 37% 30.51 in 10.0 mi NNE 6.9 mph - N/A   Clear
2:15 PM 57.7 °F - 32.2 °F 38% 30.52 in 10.0 mi ENE 4.6 mph - N/A   Clear
2:35 PM 58.1 °F - 32.4 °F 38% 30.51 in 10.0 mi NNE 8.1 mph - N/A   Clear
2:55 PM 58.6 °F - 33.1 °F 38% 30.51 in 10.0 mi NE 8.1 mph - N/A   Clear
3:15 PM 57.2 °F - 33.4 °F 41% 30.52 in 10.0 mi NE 8.1 mph - N/A   Clear
3:35 PM 57.4 °F - 33.6 °F 41% 30.51 in 10.0 mi NE 8.1 mph - N/A   Clear
3:55 PM 56.8 °F - 33.3 °F 41% 30.51 in 10.0 mi NE 6.9 mph - N/A   Clear
4:15 PM 56.3 °F - 33.8 °F 43% 30.51 in 10.0 mi NE 6.9 mph - N/A   Clear
4:35 PM 55.0 °F - 34.2 °F 45% 30.51 in 10.0 mi ENE 8.1 mph - N/A   Clear
4:55 PM 53.8 °F - 34.5 °F 48% 30.52 in 10.0 mi ENE 6.9 mph - N/A   Clear
5:15 PM 51.3 °F - 34.3 °F 52% 30.51 in 10.0 mi ENE 3.5 mph - N/A   Clear
5:35 PM 47.5 °F - 35.2 °F 63% 30.51 in 10.0 mi Calm Calm - N/A   Clear
5:55 PM 46.4 °F - 37.0 °F 70% 30.52 in 10.0 mi Calm Calm - N/A   Clear
6:15 PM 45.0 °F - 37.8 °F 76% 30.52 in 10.0 mi Calm Calm - N/A   Clear
6:35 PM 43.7 °F - 37.6 °F 79% 30.52 in 10.0 mi Calm Calm - N/A   Clear
6:55 PM 43.3 °F - 36.5 °F 77% 30.54 in 10.0 mi Calm Calm - N/A   Clear
7:15 PM 40.8 °F - 37.9 °F 89% 30.53 in 10.0 mi Calm Calm - N/A   Clear
7:35 PM 41.2 °F - 37.0 °F 85% 30.54 in 10.0 mi Calm Calm - N/A   Clear
7:55 PM 41.7 °F 39.8 °F 36.7 °F 82% 30.55 in 10.0 mi NNE 3.5 mph - N/A   Clear
8:15 PM 42.6 °F 39.9 °F 35.2 °F 75% 30.55 in 10.0 mi NE 4.6 mph - N/A   Clear
8:35 PM 40.8 °F 37.8 °F 34.0 °F 77% 30.55 in 10.0 mi ENE 4.6 mph - N/A   Clear
8:55 PM 41.5 °F 38.6 °F 34.5 °F 76% 30.55 in 10.0 mi ENE 4.6 mph - N/A   Clear
9:15 PM 41.2 °F 36.6 °F 34.0 °F 76% 30.56 in 10.0 mi ENE 6.9 mph - N/A   Clear
9:35 PM 44.1 °F 39.0 °F 32.9 °F 65% 30.56 in 10.0 mi ENE 9.2 mph - N/A   Clear
9:55 PM 41.9 °F 37.5 °F 33.8 °F 73% 30.57 in 10.0 mi NE 6.9 mph - N/A   Clear
10:15 PM 44.1 °F 39.5 °F 32.2 °F 63% 30.56 in 10.0 mi ENE 8.1 mph - N/A   Clear
10:35 PM 42.8 °F 38.6 °F 32.0 °F 66% 30.56 in 10.0 mi ENE 6.9 mph - N/A   Clear
10:55 PM 41.9 °F 39.0 °F 32.0 °F 68% 30.55 in 10.0 mi NE 4.6 mph - N/A   Clear
11:15 PM 40.5 °F 36.5 °F 31.3 °F 70% 30.56 in 10.0 mi ENE 5.8 mph - N/A   Clear
11:35 PM 41.2 °F 37.3 °F 31.5 °F 68% 30.56 in 10.0 mi ENE 5.8 mph - N/A   Clear
11:55 PM 39.6 °F 37.4 °F 32.4 °F 75% 30.55 in 10.0 mi NNE 3.5 mph - N/A   Clear